1522558800.63,10455,8.81,71500.8,-4.43,-4.99,-4.99,0,*56
1522558801.81,10456,8.81,71500.0,-4.45,-4.99,-4.99,0,*53
1522558803.02,10457,8.81,71498.5,-4.43,-4.99,-4.99,0,*54
1522558804.23,10458,8.81,71500.8,-4.43,-4.99,-4.99,0,*5B
1522558805.49,10459,8.81,71502.3,-4.45,-5.03,-5.03,0,*5C
1522558806.72,10460,8.81,71498.5,-4.43,-4.99,-4.93,0,*5A
1522558807.91,10461,8.81,71506.0,-4.45,-4.99,-4.99,0,*57
1522558809.12,10462,8.81,71496.8,-4.43,-4.99,-4.99,0,*52
1522558810.36,10463,8.81,71498.5,-4.45,-5.07,-5.11,0,*52
1522558811.62,10464,8.81,71500.3,-4.43,-4.93,-4.93,0,*54
1522558812.85,10465,8.81,71498.3,-4.43,-4.93,-4.99,0,*5F
1522558814.09,10466,8.81,71502.3,-4.43,-4.93,-4.99,0,*5C
1522558815.3,10467,8.81,71502.8,-4.45,-5.03,-4.99,0,*53
1522558816.54,10468,8.81,71500.5,-4.43,-4.99,-4.93,0,*52
1522558817.75,10469,8.81,71500.8,-4.43,-4.99,-4.99,0,*59
1522558818.93,10470,8.81,71496.5,-4.45,-4.99,-4.99,0,*57
1522558820.18,10471,8.81,71502.8,-4.43,-4.99,-5.03,0,*52
1522558821.43,10472,8.81,71496.3,-4.45,-5.03,-5.03,0,*55
1522558822.66,10473,8.81,71500.3,-4.43,-4.93,-4.99,0,*58
1522558823.91,10474,8.81,71498.3,-4.43,-4.99,-5.03,0,*57
1522558825.11,10475,8.81,71502.5,-4.43,-4.99,-4.99,0,*54
1522558826.33,10476,8.81,71502.5,-4.45,-5.11,-4.99,0,*50
1522558827.53,10477,8.81,71500.5,-4.43,-4.99,-4.99,0,*56
1522558828.79,10478,8.81,71502.8,-4.45,-5.03,-5.03,0,*5F
1522558830.05,10479,8.81,71500.0,-4.43,-4.93,-4.93,0,*58
1522558831.3,10480,8.81,71498.3,-4.45,-5.03,-5.03,0,*58
1522558832.56,10481,8.81,71496.3,-4.43,-4.93,-5.07,0,*53
1522558833.82,10482,8.81,71496.5,-4.45,-5.03,-5.03,0,*5A
1522558835.03,10483,8.81,71500.5,-4.43,-4.99,-4.99,0,*5D
1522558836.26,10484,8.81,71500.3,-4.43,-4.93,-4.99,0,*50
1522558837.47,10485,8.81,71502.0,-4.43,-4.99,-4.99,0,*5B
1522558838.68,10486,8.81,71496.8,-4.43,-4.99,-4.99,0,*58
1522558839.89,10487,8.81,71500.3,-4.45,-4.99,-5.03,0,*5D
1522558841.13,10488,8.81,71500.0,-4.43,-4.99,-4.93,0,*5C
1522558842.37,10489,8.81,71498.5,-4.43,-5.07,-4.99,0,*51
1522558843.6,10490,8.81,71498.8,-4.43,-4.93,-4.99,0,*55
1522558844.87,10491,8.81,71498.5,-4.43,-5.11,-4.93,0,*55
1522558846.08,10492,8.81,71496.3,-4.43,-4.99,-4.99,0,*5D
1522558847.28,10493,8.81,71498.3,-4.43,-4.99,-4.99,0,*5C
1522558848.53,10494,8.81,71496.5,-4.43,-5.07,-4.99,0,*5D
1522558849.74,10495,8.81,71498.0,-4.45,-5.11,-4.99,0,*5D
1522558850.99,10496,8.81,71500.5,-4.45,-5.07,-5.07,0,*5F
1522558852.24,10497,8.81,71498.8,-4.43,-5.07,-4.99,0,*5E
1522558853.49,10498,8.81,71502.8,-4.45,-5.03,-5.03,0,*51
1522558854.76,10499,8.81,71496.0,-4.43,-5.07,-4.93,0,*5A
1522558856.0,10500,8.81,71498.8,-4.43,-5.07,-4.99,0,*51
1522558857.24,10501,8.81,71498.0,-4.43,-4.99,-5.03,0,*54
1522558858.48,10502,8.81,71502.3,-4.43,-4.99,-4.93,0,*5F
1522558859.72,10503,8.81,71496.0,-4.43,-4.99,-5.07,0,*52
1522558860.94,10504,8.81,71498.0,-4.45,-4.99,-5.07,0,*53
1522558862.15,10505,8.81,71498.8,-4.43,-4.99,-4.99,0,*52
1522558863.4,10506,8.81,71502.5,-4.45,-5.03,-5.03,0,*57
1522558864.66,10507,8.81,71496.8,-4.43,-4.93,-4.93,0,*50
1522558865.87,10508,8.81,71498.8,-4.43,-4.99,-4.99,0,*5F
1522558867.08,10509,8.81,71500.3,-4.43,-4.99,-4.99,0,*5E
1522558868.31,10510,8.81,71500.8,-4.43,-4.99,-4.93,0,*5C
1522558869.55,10511,8.81,71496.5,-4.43,-5.07,-4.99,0,*51
1522558870.8,10512,8.81,71498.3,-4.43,-5.07,-4.99,0,*52
1522558872.05,10513,8.81,71496.5,-4.45,-5.03,-5.03,0,*53
1522558873.29,10514,8.81,71496.8,-4.43,-4.99,-5.07,0,*54
1522558874.54,10515,8.81,71496.0,-4.43,-5.07,-4.99,0,*55
1522558875.78,10516,8.81,71496.3,-4.43,-4.99,-5.07,0,*56
1522558876.96,10517,8.81,71498.3,-4.45,-4.99,-4.99,0,*57
1522558878.22,10518,8.81,71498.8,-4.45,-5.03,-5.03,0,*58
1522558879.47,10519,8.81,71498.5,-4.45,-5.03,-5.03,0,*59
1522558880.68,10520,8.81,71502.8,-4.43,-4.99,-4.99,0,*55
1522558881.89,10521,8.81,71500.8,-4.43,-4.99,-4.99,0,*54
1522558883.16,10522,8.81,71498.8,-4.43,-5.07,-5.07,0,*57
1522558884.41,10523,8.81,71498.8,-4.45,-5.11,-5.03,0,*53
1522558885.69,10524,8.81,71498.0,-4.43,-5.07,-5.07,0,*51
1522558886.93,10525,8.81,71494.0,-4.43,-5.07,-4.99,0,*56
1522558888.21,10526,8.81,71496.8,-4.43,-5.07,-5.03,0,*57
1522558889.42,10527,8.81,71498.0,-4.43,-4.99,-4.99,0,*52
1522558890.67,10528,8.81,71500.8,-4.45,-5.03,-5.03,0,*5B
1522558891.89,10529,8.81,71496.0,-4.45,-5.03,-4.99,0,*58
1522558893.1,10530,8.81,71498.3,-4.43,-4.99,-4.99,0,*54
1522558894.34,10531,8.81,71498.5,-4.43,-4.99,-5.07,0,*53
1522558895.55,10532,8.81,71498.5,-4.43,-4.99,-4.99,0,*56
1522558896.76,10533,8.81,71496.3,-4.43,-4.99,-4.99,0,*57
1522558898.0,10534,8.81,71496.8,-4.43,-4.99,-5.07,0,*56
1522558899.24,10535,8.81,71498.0,-4.43,-5.07,-4.99,0,*57
1522558900.49,10536,8.81,71498.8,-4.45,-5.03,-5.03,0,*54
1522558901.71,10537,8.81,71498.3,-4.45,-4.99,-5.07,0,*53
1522558902.98,10538,8.81,71496.8,-4.43,-4.93,-5.07,0,*50
1522558904.19,10539,8.81,71498.5,-4.43,-4.99,-4.99,0,*5D
1522558905.43,10540,8.81,71502.5,-4.43,-5.07,-4.99,0,*55
1522558906.68,10541,8.81,71498.8,-4.45,-5.03,-5.03,0,*54
1522558907.89,10542,8.81,71502.3,-4.43,-4.99,-4.99,0,*51
1522558909.14,10543,8.81,71496.5,-4.45,-5.11,-5.03,0,*55
1522558910.35,10544,8.81,71500.0,-4.43,-4.99,-4.99,0,*57
1522558911.59,10545,8.81,71494.8,-4.43,-5.07,-4.99,0,*50
1522558912.83,10546,8.81,71496.5,-4.43,-5.07,-4.99,0,*53
1522558914.11,10547,8.81,71502.0,-4.43,-5.07,-5.03,0,*50
1522558915.35,10548,8.81,71498.5,-4.43,-5.07,-4.99,0,*5D
1522558916.6,10549,8.81,71498.8,-4.45,-5.11,-5.03,0,*5F
1522558917.81,10550,8.81,71498.5,-4.43,-4.99,-4.99,0,*52
1522558919.02,10551,8.81,71496.0,-4.43,-4.99,-4.99,0,*53
1522558920.27,10552,8.81,71496.0,-4.45,-5.03,-5.03,0,*56
1522558921.52,10553,8.81,71494.0,-4.45,-5.03,-5.03,0,*57
1522558922.77,10554,8.81,71498.8,-4.43,-5.07,-4.99,0,*50
1522558924.0,10555,8.81,71498.3,-4.43,-4.99,-4.93,0,*5D
1522558925.24,10556,8.81,71498.0,-4.43,-5.03,-4.99,0,*56
1522558926.5,10557,8.81,71500.3,-4.45,-5.03,-5.03,0,*53
1522558927.74,10558,8.81,71500.3,-4.45,-5.03,-5.11,0,*5F
1522558928.99,10559,8.81,71500.3,-4.45,-5.03,-5.11,0,*5E
1522558930.24,10560,8.81,71502.0,-4.43,-5.07,-4.99,0,*57
1522558931.48,10561,8.81,71496.0,-4.45,-5.11,-5.03,0,*55
1522558932.73,10562,8.81,71498.8,-4.43,-5.07,-4.99,0,*55
1522558933.97,10563,8.81,71500.5,-4.45,-5.11,-5.03,0,*57
1522558935.18,10564,8.81,71496.8,-4.43,-4.99,-4.99,0,*55
1522558936.43,10565,8.81,71498.0,-4.45,-5.03,-5.03,0,*52
1522558937.69,10566,8.81,71498.8,-4.45,-5.03,-5.03,0,*51
1522558938.89,10567,8.81,71496.8,-4.43,-4.99,-4.99,0,*56
1522558940.13,10568,8.81,71498.0,-4.43,-5.11,-4.99,0,*58
1522558941.38,10569,8.81,71496.8,-4.45,-5.15,-5.03,0,*59
1522558942.63,10570,8.81,71498.5,-4.45,-5.11,-5.11,0,*56
1522558943.83,10571,8.81,71496.8,-4.43,-4.99,-4.99,0,*51
1522558945.09,10572,8.81,71498.5,-4.45,-5.03,-5.03,0,*54
1522558946.34,10573,8.81,71496.0,-4.45,-5.03,-5.03,0,*55
1522558947.58,10574,8.81,71498.8,-4.43,-4.99,-4.93,0,*5E
1522558948.83,10575,8.81,71500.3,-4.45,-5.03,-5.03,0,*53
1522558950.07,10576,8.81,71502.0,-4.43,-5.07,-4.99,0,*50
1522558951.31,10577,8.81,71502.8,-4.43,-5.07,-4.99,0,*51
1522558952.57,10578,8.81,71502.5,-4.45,-5.03,-5.03,0,*5E
1522558953.81,10579,8.81,71502.8,-4.45,-5.11,-5.11,0,*5F
1522558955.05,10580,8.81,71498.0,-4.45,-5.11,-5.03,0,*5A
1522558956.31,10581,8.81,71498.5,-4.45,-5.15,-5.03,0,*5F
1522558957.56,10582,8.81,71498.0,-4.45,-5.07,-5.03,0,*5F
1522558958.8,10583,8.81,71498.0,-4.43,-5.07,-4.99,0,*5A
1522558960.06,10584,8.81,71502.3,-4.45,-5.03,-5.03,0,*5D
1522558961.27,10585,8.81,71498.8,-4.43,-4.99,-4.99,0,*5A
1522558962.51,10586,8.81,71496.0,-4.43,-5.07,-4.99,0,*5F
1522558963.75,10587,8.81,71498.3,-4.43,-5.07,-4.99,0,*5E
1522558965.0,10588,8.81,71500.8,-4.45,-5.07,-5.03,0,*55
1522558966.25,10589,8.81,71498.5,-4.43,-5.07,-4.99,0,*50
1522558967.49,10590,8.81,71498.5,-4.45,-5.03,-5.11,0,*5B
1522558968.74,10591,8.81,71498.3,-4.45,-5.11,-5.03,0,*5A
1522558969.98,10592,8.81,71500.0,-4.45,-5.11,-5.11,0,*5A
1522558971.23,10593,8.81,71496.8,-4.45,-5.11,-5.03,0,*58
1522558972.47,10594,8.81,71496.3,-4.45,-5.11,-5.11,0,*5C
1522558973.72,10595,8.81,71502.3,-4.45,-5.03,-5.11,0,*5E
1522558975.0,10596,8.81,71496.0,-4.43,-5.07,-5.07,0,*58
1522558976.28,10597,8.81,71502.8,-4.43,-5.07,-5.07,0,*59
1522558977.52,10598,8.81,71500.5,-4.43,-5.07,-4.99,0,*50
1522558978.77,10599,8.81,71498.0,-4.45,-5.11,-5.03,0,*52
1522558980.04,10600,8.81,71502.0,-4.43,-5.07,-5.11,0,*53
1522558981.31,10601,8.81,71500.0,-4.43,-5.07,-5.07,0,*55
1522558982.56,10602,8.81,71498.8,-4.45,-5.11,-5.03,0,*53
1522558983.81,10603,8.81,71498.8,-4.45,-5.11,-5.03,0,*52
1522558985.08,10604,8.81,71500.0,-4.43,-5.07,-5.07,0,*50
1522558986.35,10605,8.81,71496.0,-4.43,-5.07,-4.93,0,*5D
1522558987.6,10606,8.81,71498.5,-4.45,-5.11,-5.03,0,*57
1522558988.85,10607,8.81,71500.5,-4.45,-5.03,-5.03,0,*55
1522558990.07,10608,8.81,71498.8,-4.45,-5.03,-4.99,0,*58
1522558991.28,10609,8.81,71498.0,-4.43,-4.99,-4.99,0,*5D
1522558992.53,10610,8.81,71498.5,-4.45,-5.03,-5.11,0,*50
1522558993.78,10611,8.81,71496.5,-4.45,-5.11,-5.03,0,*51
1522558994.98,10612,8.81,71496.3,-4.43,-4.99,-4.99,0,*57
1522558996.23,10613,8.81,71498.5,-4.43,-4.99,-5.07,0,*50
1522558997.48,10614,8.81,71498.3,-4.45,-5.03,-5.03,0,*57
1522558998.73,10615,8.81,71498.0,-4.45,-5.11,-5.03,0,*55
1522558999.97,10616,8.81,71496.3,-4.43,-5.07,-4.99,0,*55
1522559001.24,10617,8.81,71498.8,-4.43,-5.07,-5.07,0,*52
1522559002.49,10618,8.81,71496.0,-4.45,-5.11,-5.03,0,*58
1522559003.74,10619,8.81,71498.0,-4.45,-5.03,-5.03,0,*5A
1522559004.96,10620,8.81,71498.3,-4.45,-5.03,-4.99,0,*52
1522559006.21,10621,8.81,71496.5,-4.45,-5.07,-4.93,0,*5D
1522559007.42,10622,8.81,71494.8,-4.45,-5.11,-4.99,0,*53
1522559008.64,10623,8.81,71498.3,-4.45,-5.03,-4.99,0,*51
1522559009.88,10624,8.81,71496.3,-4.43,-4.99,-4.93,0,*58
1522559011.15,10625,8.81,71496.0,-4.43,-5.07,-4.93,0,*5F
1522559012.39,10626,8.81,71502.3,-4.45,-5.11,-5.03,0,*55
1522559013.6,10627,8.81,71496.5,-4.43,-4.99,-4.99,0,*51
1522559014.81,10628,8.81,71498.8,-4.45,-4.99,-4.93,0,*52
1522559016.07,10629,8.81,71494.8,-4.45,-5.03,-5.03,0,*59
1522559017.32,10630,8.81,71498.0,-4.45,-5.03,-5.03,0,*51
1522559018.56,10631,8.81,71500.0,-4.43,-4.99,-5.03,0,*54
1522559019.81,10632,8.81,71498.8,-4.45,-5.03,-5.03,0,*53
1522559021.07,10633,8.81,71498.5,-4.45,-5.03,-5.03,0,*52
1522559022.28,10634,8.81,71496.5,-4.45,-5.03,-4.99,0,*57
1522559023.54,10635,8.81,71500.0,-4.45,-5.03,-5.03,0,*54
1522559024.77,10636,8.81,71496.5,-4.43,-4.99,-4.93,0,*5B
1522559026.03,10637,8.81,71496.5,-4.45,-5.03,-5.03,0,*56
1522559027.24,10638,8.81,71496.5,-4.45,-5.03,-4.99,0,*5B
1522559028.5,10639,8.81,71498.5,-4.45,-5.03,-5.03,0,*58
1522559029.72,10640,8.81,71502.0,-4.45,-4.99,-5.07,0,*50
1522559030.97,10641,8.81,71500.3,-4.45,-5.03,-5.11,0,*54
1522559032.21,10642,8.81,71496.8,-4.45,-5.03,-5.11,0,*57
1522559033.42,10643,8.81,71496.8,-4.43,-4.99,-4.99,0,*53
1522559034.67,10644,8.81,71498.3,-4.45,-5.11,-5.03,0,*51
1522559035.92,10645,8.81,71498.8,-4.45,-5.03,-5.11,0,*50
1522559037.16,10646,8.81,71496.5,-4.45,-5.11,-5.03,0,*53
1522559038.35,10647,8.81,71496.8,-4.45,-4.99,-4.99,0,*51
1522559039.63,10648,8.81,71498.8,-4.43,-5.07,-5.07,0,*58
1522559040.9,10649,8.81,71492.5,-4.43,-5.07,-5.11,0,*5E
1522559042.15,10650,8.81,71496.5,-4.45,-5.03,-5.03,0,*57
1522559043.43,10651,8.81,71498.5,-4.43,-5.07,-5.03,0,*54
1522559044.64,10652,8.81,71500.3,-4.43,-4.99,-4.99,0,*53
1522559045.85,10653,8.81,71498.0,-4.43,-4.99,-4.99,0,*52
1522559047.1,10654,8.81,71498.0,-4.45,-5.03,-5.03,0,*53
1522559048.35,10655,8.81,71500.3,-4.45,-5.11,-5.03,0,*51
1522559049.59,10656,8.81,71496.3,-4.43,-5.07,-4.99,0,*51
1522559050.82,10657,8.81,71496.8,-4.43,-4.99,-4.93,0,*5C
1522559052.04,10658,8.81,71498.8,-4.45,-4.99,-5.07,0,*59
1522559053.3,10659,8.81,71498.5,-4.45,-5.03,-5.03,0,*5E
1522559054.55,10660,8.81,71496.5,-4.45,-5.03,-5.03,0,*54
1522559055.76,10661,8.81,71496.3,-4.43,-4.99,-4.99,0,*53
1522559057.01,10662,8.81,71500.3,-4.45,-5.03,-5.03,0,*56
1522559058.24,10663,8.81,71496.3,-4.43,-4.93,-4.99,0,*5B
1522559059.49,10664,8.81,71496.0,-4.45,-5.03,-5.03,0,*50
1522559060.75,10665,8.81,71498.0,-4.45,-5.15,-5.03,0,*56
1522559061.99,10666,8.81,71500.5,-4.43,-5.07,-4.99,0,*52
1522559063.24,10667,8.81,71498.0,-4.45,-5.03,-5.11,0,*50
1522559064.47,10668,8.81,71496.3,-4.43,-4.93,-4.99,0,*50
1522559065.72,10669,8.81,71502.0,-4.45,-5.03,-5.03,0,*5D
1522559066.97,10670,8.81,71496.8,-4.45,-5.11,-5.03,0,*56
1522559068.22,10671,8.81,71500.0,-4.45,-5.11,-5.03,0,*57
1522559069.49,10672,8.81,71500.3,-4.47,-5.03,-5.03,0,*55
1522559070.74,10673,8.81,71498.8,-4.45,-5.03,-5.03,0,*56
1522559071.99,10674,8.81,71496.3,-4.45,-5.03,-5.03,0,*51
1522559073.25,10675,8.81,71496.8,-4.45,-5.03,-5.03,0,*50
1522559074.5,10676,8.81,71498.3,-4.45,-5.03,-5.03,0,*53
1522559075.71,10677,8.81,71498.0,-4.43,-4.99,-4.99,0,*54
1522559076.96,10678,8.81,71498.8,-4.45,-5.03,-5.03,0,*5D
1522559078.21,10679,8.81,71496.5,-4.45,-5.03,-5.03,0,*5C
1522559079.46,10680,8.81,71496.0,-4.45,-5.03,-5.15,0,*5D
1522559080.71,10681,8.81,71496.5,-4.43,-4.99,-5.07,0,*5B
1522559081.96,10682,8.81,71498.0,-4.45,-5.03,-5.03,0,*58
1522559083.2,10683,8.81,71502.0,-4.43,-4.99,-5.07,0,*59
1522559084.41,10684,8.81,71498.5,-4.43,-4.99,-4.99,0,*58
1522559085.66,10685,8.81,71500.3,-4.45,-5.03,-5.03,0,*5F
1522559086.88,10686,8.81,71496.5,-4.45,-4.99,-5.03,0,*5E
1522559088.14,10687,8.81,71496.8,-4.45,-5.15,-5.03,0,*5A
1522559089.35,10688,8.81,71496.3,-4.45,-4.99,-5.03,0,*50
1522559090.6,10689,8.81,71498.5,-4.43,-5.07,-4.99,0,*53
1522559091.83,10690,8.81,71500.8,-4.43,-4.93,-4.99,0,*57
1522559093.08,10691,8.81,71498.3,-4.45,-5.03,-5.03,0,*5A
1522559094.32,10692,8.81,71498.5,-4.43,-4.99,-5.07,0,*59
1522559095.58,10693,8.81,71500.5,-4.45,-5.03,-5.03,0,*58
1522559096.83,10694,8.81,71498.0,-4.45,-5.03,-5.03,0,*5F
1522559098.04,10695,8.81,71502.3,-4.43,-4.99,-4.99,0,*58
1522559099.29,10696,8.81,71502.0,-4.45,-5.03,-5.03,0,*5D
1522559100.54,10697,8.81,71500.0,-4.45,-5.03,-5.03,0,*5C
1522559101.75,10698,8.81,71496.3,-4.43,-4.99,-4.99,0,*55
1522559103.0,10699,8.81,71496.5,-4.45,-5.03,-5.03,0,*52
1522559104.24,10700,8.81,71498.3,-4.43,-4.99,-4.93,0,*5F
1522559105.45,10701,8.81,71498.0,-4.45,-5.11,-4.99,0,*53
1522559106.67,10702,8.81,71502.3,-4.45,-5.03,-4.99,0,*53
1522559107.89,10703,8.81,71498.5,-4.45,-5.03,-4.99,0,*52
1522559109.14,10704,8.81,71500.0,-4.45,-5.03,-5.03,0,*57
1522559110.39,10705,8.81,71500.0,-4.43,-4.99,-5.03,0,*52
1522559111.63,10706,8.81,71502.3,-4.45,-5.11,-5.03,0,*56
1522559112.88,10707,8.81,71500.3,-4.45,-5.03,-5.03,0,*54
1522559114.14,10708,8.81,71500.0,-4.45,-5.03,-5.03,0,*5B
1522559115.39,10709,8.81,71502.0,-4.45,-5.03,-5.03,0,*5A
1522559116.64,10710,8.81,71500.8,-4.45,-5.03,-5.03,0,*52
1522559117.9,10711,8.81,71496.5,-4.45,-5.03,-5.03,0,*53
1522559119.15,10712,8.81,71500.0,-4.45,-5.03,-5.03,0,*50
1522559120.4,10713,8.81,71500.3,-4.45,-5.03,-5.03,0,*51
1522559121.65,10714,8.81,71498.5,-4.45,-5.03,-5.03,0,*56
1522559122.9,10715,8.81,71498.5,-4.43,-5.07,-4.99,0,*57
1522559124.11,10716,8.81,71502.5,-4.45,-4.99,-5.11,0,*55
1522559125.36,10717,8.81,71502.8,-4.45,-5.11,-5.03,0,*56
1522559126.58,10718,8.81,71502.3,-4.45,-5.07,-4.99,0,*5C
1522559127.83,10719,8.81,71502.0,-4.45,-5.03,-5.03,0,*5B
1522559129.05,10720,8.81,71498.0,-4.45,-4.99,-5.03,0,*53
1522559130.32,10721,8.81,71500.0,-4.47,-5.03,-5.03,0,*52
1522559131.53,10722,8.81,71498.5,-4.43,-4.99,-4.99,0,*55
1522559132.78,10723,8.81,71496.0,-4.45,-5.03,-5.03,0,*52
1522559134.03,10724,8.81,71502.0,-4.45,-5.03,-5.11,0,*56
1522559135.31,10725,8.81,71500.0,-4.47,-5.03,-5.03,0,*56
1522559136.52,10726,8.81,71500.8,-4.45,-5.03,-4.99,0,*55
1522559137.76,10727,8.81,71498.5,-4.43,-4.99,-5.11,0,*51
1522559139.01,10728,8.81,71502.8,-4.45,-5.11,-5.11,0,*59
1522559140.25,10729,8.81,71500.5,-4.45,-5.11,-5.03,0,*5B
1522559141.51,10730,8.81,71502.3,-4.45,-5.03,-5.03,0,*50
1522559142.76,10731,8.81,71498.0,-4.45,-5.03,-5.03,0,*51
1522559143.97,10732,8.81,71502.3,-4.43,-4.99,-4.99,0,*54
1522559145.19,10733,8.81,71498.5,-4.45,-5.07,-4.99,0,*55
1522559146.41,10734,8.81,71502.0,-4.45,-5.03,-4.99,0,*56
1522559147.65,10735,8.81,71500.5,-4.45,-5.11,-5.03,0,*56
1522559148.86,10736,8.81,71500.8,-4.43,-4.99,-4.99,0,*50
1522559150.08,10737,8.81,71502.5,-4.45,-5.03,-4.99,0,*55
1522559151.33,10738,8.81,71500.0,-4.45,-5.03,-5.03,0,*58
1522559152.57,10739,8.81,71500.3,-4.43,-4.99,-4.93,0,*55
1522559153.8,10740,8.81,71500.8,-4.43,-4.99,-4.93,0,*5B
1522559155.05,10741,8.81,71502.5,-4.45,-5.03,-5.03,0,*56
1522559156.28,10742,8.81,71500.8,-4.45,-4.99,-5.03,0,*57
1522559157.53,10743,8.81,71500.3,-4.45,-5.03,-5.03,0,*54
1522559158.77,10744,8.81,71502.5,-4.43,-4.99,-5.07,0,*53
1522559160.01,10745,8.81,71500.8,-4.43,-5.07,-4.99,0,*52
1522559161.27,10746,8.81,71502.0,-4.45,-5.03,-5.03,0,*51
1522559162.51,10747,8.81,71498.3,-4.43,-5.07,-4.99,0,*50
1522559163.76,10748,8.81,71500.8,-4.45,-5.03,-5.03,0,*5F
1522559165.01,10749,8.81,71502.8,-4.45,-5.11,-5.03,0,*5D
1522559166.24,10750,8.81,71500.5,-4.43,-4.99,-4.93,0,*5A
1522559167.48,10751,8.81,71502.0,-4.43,-5.07,-4.99,0,*57
1522559168.73,10752,8.81,71502.0,-4.45,-5.11,-5.11,0,*54
1522559169.97,10753,8.81,71502.8,-4.45,-5.11,-5.03,0,*56
1522559171.23,10754,8.81,71500.5,-4.45,-5.03,-5.03,0,*52
1522559172.44,10755,8.81,71506.5,-4.43,-4.99,-4.99,0,*55
1522559173.66,10756,8.81,71500.0,-4.45,-4.99,-5.03,0,*52
1522559174.87,10757,8.81,71500.8,-4.45,-5.03,-4.99,0,*53
1522559176.12,10758,8.81,71502.8,-4.45,-5.03,-5.11,0,*5D
1522559177.37,10759,8.81,71502.3,-4.45,-5.11,-5.03,0,*5C
1522559178.61,10760,8.81,71500.3,-4.43,-5.07,-4.99,0,*55
1522559179.8,10761,8.81,71498.5,-4.45,-4.99,-4.99,0,*54
1522559181.03,10762,8.81,71500.8,-4.43,-4.99,-4.93,0,*5B
1522559182.28,10763,8.81,71500.8,-4.45,-5.03,-5.03,0,*56
1522559183.53,10764,8.81,71504.5,-4.45,-5.11,-5.03,0,*52
1522559184.78,10765,8.81,71502.3,-4.45,-5.03,-5.03,0,*50
1522559186.04,10766,8.81,71502.5,-4.45,-5.03,-5.03,0,*53
1522559187.26,10767,8.81,71504.5,-4.45,-5.03,-4.99,0,*50
1522559188.51,10768,8.81,71502.8,-4.45,-5.03,-5.03,0,*5D
1522559189.76,10769,8.81,71502.3,-4.45,-5.03,-5.03,0,*5C
1522559190.98,10770,8.81,71500.3,-4.45,-5.03,-4.99,0,*56
1522559192.2,10771,8.81,71504.8,-4.45,-4.99,-5.03,0,*57
1522559193.41,10772,8.81,71502.3,-4.43,-4.99,-4.99,0,*50
1522559194.65,10773,8.81,71504.8,-4.43,-5.07,-4.99,0,*57
1522559195.9,10774,8.81,71502.5,-4.45,-5.03,-5.03,0,*50
1522559197.11,10775,8.81,71502.3,-4.43,-4.99,-4.99,0,*57
1522559198.32,10776,8.81,71506.5,-4.43,-4.99,-4.99,0,*54
1522559199.54,10777,8.81,71502.5,-4.45,-4.99,-5.03,0,*51
1522559200.76,10778,8.81,71500.8,-4.45,-5.03,-4.99,0,*5E
1522559202.01,10779,8.81,71504.0,-4.45,-5.03,-5.03,0,*5D
1522559203.26,10780,8.81,71500.8,-4.45,-5.03,-5.03,0,*5B
1522559204.52,10781,8.81,71504.3,-4.45,-5.03,-5.03,0,*5A
1522559205.74,10782,8.81,71504.3,-4.45,-4.99,-5.03,0,*5B
1522559206.99,10783,8.81,71506.0,-4.45,-5.03,-5.03,0,*58
1522559208.24,10784,8.81,71504.0,-4.45,-5.03,-5.03,0,*5F
1522559209.46,10785,8.81,71506.8,-4.45,-5.03,-4.99,0,*5C
1522559210.7,10786,8.81,71504.8,-4.47,-5.03,-4.99,0,*5D
1522559211.95,10787,8.81,71500.0,-4.45,-5.03,-5.03,0,*5C
1522559213.17,10788,8.81,71504.3,-4.45,-5.03,-4.99,0,*51
1522559214.36,10789,8.81,71506.8,-4.45,-4.99,-4.99,0,*52
1522559215.54,10790,8.81,71506.5,-4.45,-4.99,-4.99,0,*5A
1522559216.76,10791,8.81,71506.0,-4.45,-4.99,-5.03,0,*59
1522559218.01,10792,8.81,71504.3,-4.45,-5.03,-5.03,0,*58
1522559219.22,10793,8.81,71506.3,-4.43,-4.99,-4.99,0,*5F
1522559220.47,10794,8.81,71504.0,-4.45,-5.11,-5.03,0,*5D
1522559221.72,10795,8.81,71504.0,-4.45,-5.03,-5.03,0,*5F
1522559222.97,10796,8.81,71506.3,-4.45,-5.11,-5.03,0,*5F
1522559224.22,10797,8.81,71506.8,-4.45,-5.11,-5.03,0,*5E
1522559225.43,10798,8.81,71504.8,-4.45,-5.11,-4.99,0,*53
1522559226.68,10799,8.81,71506.0,-4.45,-5.03,-5.03,0,*53
1522559227.92,10800,8.81,71504.3,-4.43,-5.07,-4.99,0,*5C
1522559229.16,10801,8.81,71504.5,-4.43,-4.99,-4.93,0,*51
1522559230.37,10802,8.81,71504.3,-4.45,-4.99,-5.11,0,*5F
1522559231.63,10803,8.81,71506.8,-4.45,-5.03,-5.03,0,*5F
1522559232.84,10804,8.81,71506.5,-4.45,-4.99,-4.93,0,*52
1522559234.06,10805,8.81,71508.0,-4.45,-5.03,-4.99,0,*5B
1522559235.31,10806,8.81,71504.0,-4.45,-5.03,-5.11,0,*59
1522559236.54,10807,8.81,71504.8,-4.43,-4.99,-4.93,0,*57
1522559237.8,10808,8.81,71506.3,-4.45,-5.03,-5.03,0,*54
1522559239.05,10809,8.81,71506.8,-4.45,-5.03,-5.03,0,*55
1522559240.29,10810,8.81,71504.5,-4.45,-5.11,-5.03,0,*5E
1522559241.51,10811,8.81,71504.3,-4.45,-5.11,-4.99,0,*5D
1522559242.72,10812,8.81,71506.5,-4.43,-4.99,-4.99,0,*59
1522559243.95,10813,8.81,71504.0,-4.43,-4.93,-4.99,0,*52
1522559245.2,10814,8.81,71504.5,-4.45,-5.03,-5.03,0,*59
1522559246.45,10815,8.81,71510.0,-4.45,-5.11,-5.03,0,*5B
1522559247.68,10816,8.81,71508.5,-4.43,-4.99,-4.93,0,*57
1522559248.93,10817,8.81,71508.8,-4.45,-5.03,-5.03,0,*5A
1522559250.14,10818,8.81,71504.5,-4.43,-4.99,-4.99,0,*53
1522559251.36,10819,8.81,71502.0,-4.45,-5.03,-4.99,0,*56
1522559252.58,10820,8.81,71506.8,-4.45,-5.03,-4.99,0,*5C
1522559253.83,10821,8.81,71508.5,-4.45,-5.03,-5.03,0,*5F
1522559255.09,10822,8.81,71508.8,-4.45,-5.03,-5.03,0,*5C
1522559256.34,10823,8.81,71508.8,-4.45,-5.03,-5.03,0,*5D
1522559257.56,10824,8.81,71506.8,-4.45,-5.03,-4.99,0,*58
1522559258.79,10825,8.81,71508.0,-4.43,-4.99,-4.93,0,*57
1522559260.0,10826,8.81,71508.0,-4.43,-4.99,-4.99,0,*5E
1522559261.25,10827,8.81,71508.5,-4.45,-5.03,-5.03,0,*59
1522559262.46,10828,8.81,71508.0,-4.43,-4.99,-4.99,0,*50
1522559263.71,10829,8.81,71506.0,-4.43,-5.07,-4.99,0,*57
1522559264.96,10830,8.81,71508.8,-4.43,-4.93,-4.93,0,*59
1522559266.2,10831,8.81,71508.0,-4.43,-4.99,-4.93,0,*52
1522559267.45,10832,8.81,71508.5,-4.45,-5.03,-5.03,0,*5D
1522559268.7,10833,8.81,71508.3,-4.45,-5.11,-5.03,0,*5F
1522559269.93,10834,8.81,71508.5,-4.43,-4.99,-4.93,0,*57
1522559271.15,10835,8.81,71508.0,-4.45,-4.99,-5.11,0,*5B
1522559272.36,10836,8.81,71508.8,-4.43,-4.99,-4.99,0,*5F
1522559273.6,10837,8.81,71510.5,-4.45,-5.11,-5.11,0,*58
1522559274.82,10838,8.81,71508.3,-4.45,-5.03,-4.99,0,*55
1522559276.07,10839,8.81,71508.3,-4.45,-5.03,-5.03,0,*56
1522559277.32,10840,8.81,71508.8,-4.45,-5.03,-5.03,0,*58
1522559278.53,10841,8.81,71510.3,-4.43,-4.99,-4.99,0,*5F
1522559279.75,10842,8.81,71510.5,-4.45,-5.03,-4.99,0,*58
1522559281.01,10843,8.81,71508.5,-4.45,-5.03,-5.03,0,*5B
1522559282.28,10844,8.81,71510.8,-4.47,-5.03,-5.03,0,*5E
1522559283.53,10845,8.81,71508.3,-4.45,-5.03,-5.03,0,*5D
1522559284.75,10846,8.81,71508.8,-4.45,-5.03,-4.99,0,*5C
1522559285.98,10847,8.81,71508.3,-4.43,-4.93,-4.99,0,*53
1522559287.23,10848,8.81,71510.5,-4.43,-5.07,-4.99,0,*50
1522559288.48,10849,8.81,71508.0,-4.45,-5.03,-5.03,0,*51
1522559289.7,10850,8.81,71512.8,-4.45,-5.03,-4.99,0,*5B
1522559290.9,10851,8.81,71514.0,-4.43,-4.99,-4.99,0,*5E
1522559292.12,10852,8.81,71508.8,-4.45,-5.03,-4.99,0,*59
1522559293.38,10853,8.81,71510.5,-4.45,-5.03,-5.03,0,*5A
1522559294.59,10854,8.81,71514.3,-4.45,-4.99,-4.93,0,*57
1522559295.84,10855,8.81,71512.0,-4.45,-5.03,-5.03,0,*5C
1522559297.06,10856,8.81,71510.0,-4.45,-5.03,-4.99,0,*5D
1522559298.31,10857,8.81,71510.5,-4.45,-5.11,-5.03,0,*5D
1522559299.55,10858,8.81,71508.5,-4.45,-5.11,-5.03,0,*52
1522559300.81,10859,8.81,71510.8,-4.45,-5.03,-5.03,0,*50
1522559302.06,10860,8.81,71512.5,-4.43,-4.93,-4.93,0,*5C
1522559303.28,10861,8.81,71510.5,-4.45,-5.03,-4.99,0,*59
1522559304.5,10862,8.81,71512.3,-4.45,-4.99,-5.03,0,*5A
1522559305.75,10863,8.81,71512.0,-4.45,-5.03,-5.11,0,*5A
1522559306.99,10864,8.81,71512.0,-4.43,-4.99,-4.93,0,*52
1522559308.24,10865,8.81,71510.3,-4.45,-5.03,-5.03,0,*5F
1522559309.49,10866,8.81,71512.8,-4.45,-5.11,-5.03,0,*5F
1522559310.74,10867,8.81,71508.8,-4.45,-5.03,-5.03,0,*5D
1522559311.95,10868,8.81,71508.0,-4.43,-4.99,-4.99,0,*54
1522559313.16,10869,8.81,71514.3,-4.43,-4.99,-4.99,0,*55
1522559314.38,10870,8.81,71510.5,-4.45,-5.03,-4.99,0,*59
1522559315.59,10871,8.81,71512.5,-4.45,-4.99,-5.03,0,*58
1522559316.81,10872,8.81,71510.5,-4.45,-5.03,-4.99,0,*5B
1522559318.07,10873,8.81,71514.3,-4.45,-5.03,-5.03,0,*58
1522559319.29,10874,8.81,71512.3,-4.45,-5.03,-4.99,0,*5D
1522559320.49,10875,8.81,71512.3,-4.43,-4.99,-4.99,0,*58